This is the latest recevied weather packets stored in our database for station/object HI3LT-13. If no packets are shown the sender has not sent any weather packets the latest 10 day(s).
| Time | Temp. | Humidity | Pressure | Rain* | Wind** | Luminosity | Snow |
|---|---|---|---|---|---|---|---|
| 1788508118 | 23.33° C | 86% | 1015 hPa | 0 mm | - | - | - |
| 1788507517 | 23.33° C | 86% | 1015 hPa | 0 mm | - | - | - |
| 1788506917 | 23.89° C | 84% | 1015 hPa | 0 mm | - | - | - |
| 1788506316 | 24.44° C | 83% | 1015 hPa | 0 mm | - | - | - |
| 1788505716 | 24.44° C | 84% | 1015 hPa | 0 mm | - | - | - |
| 1788505138 | 24.44° C | 84% | 1015 hPa | 0 mm | - | - | - |
| 1788504515 | 24.44° C | 84% | 1015 hPa | 0 mm | - | - | - |
| 1788503914 | 24.44° C | 83% | 1015 hPa | 0 mm | - | - | - |
| 1788503313 | 25.56° C | 82% | 1015 hPa | 0 mm | - | - | - |
| 1788502712 | 25.56° C | 82% | 1015 hPa | 0 mm | - | - | - |
| 1788502112 | 26.11° C | 80% | 1015 hPa | 0 mm | - | - | - |
| 1788501511 | 25.56° C | 81% | 1015 hPa | 0 mm | - | - | - |
| 1788500910 | 25° C | 81% | 1015 hPa | 0 mm | - | - | - |
| 1788500309 | 26.11° C | 81% | 1015 hPa | 0 mm | - | - | - |
| 1788499708 | 25° C | 81% | 1016 hPa | 0 mm | - | - | - |
| 1788499107 | 25° C | 82% | 1016 hPa | 0 mm | - | - | - |
| 1788498507 | 26.11° C | 83% | 1016 hPa | 0 mm | - | - | - |
| 1788497906 | 21.67° C | 89% | 1016 hPa | 0 mm | - | - | - |
| 1788497305 | 22.22° C | 89% | 1016 hPa | 0 mm | - | - | - |
| 1788496704 | 27.22° C | 86% | 1016 hPa | 0 mm | - | - | - |
| 1788496103 | 26.67° C | 78% | 1016 hPa | 0 mm | - | - | - |
| 1788495502 | 26.67° C | 78% | 1016 hPa | 0 mm | - | - | - |
| 1788494902 | 26.67° C | 81% | 1016 hPa | 0 mm | - | - | - |
| 1788494301 | 26.67° C | 78% | 1016 hPa | 0 mm | - | - | - |
| 1788493700 | 26.11° C | 82% | 1016 hPa | 0 mm | - | - | - |
* Rain latest hour (hover to see other rain measurements)
** Current wind speed in m/s (hover to see current wind gust speed)